TIANWANG 1B (TW-1B)
1 40927U 15051C   19109.51678108  .00010666  00000-0  17281-3 0  9991
2 40927  97.1462 155.2826 0007090 234.7000 235.1862 15.52935828200674
TIANWANG 1A (TW-1A)
1 40928U 15051D   19109.48082169  .00003257  00000-0  82482-4 0  9998
2 40928  97.1524 142.1140 0009495 298.8910 171.6301 15.40409330199906
LAPAN A2
1 40931U 15052B   19109.43819918  .00000578  00000-0 -86043-5 0  9990
2 40931   5.9979 126.2474 0013317  17.6286 342.8166 14.76603447192340
LQSAT
1 40958U 15057A   19109.44920794  .00000013  00000-0  96878-5 0  9990
2 40958  97.9024 180.2588 0019770  75.4797 284.8602 14.73073680189933
CHUBUSAT 2
1 41338U 16012B   19109.20826464  .00000332  00000-0  19061-4 0  9990
2 41338  31.0022 169.1414 0013807 224.4636 135.4892 15.00125859173820
CHUBUSAT 3
1 41339U 16012C   19109.45098657  .00000338  00000-0  19489-4 0  9993
2 41339  31.0091 165.7738 0013692 234.5943 125.3401 15.00303300173859
OUFTI-1
1 41458U 16025C   19109.44705287  .00002520  00000-0  13215-3 0  9997
2 41458  98.1007 193.2403 0166849 199.3044 160.1815 15.05587695163514
E-STAR-2
1 41459U 16025D   19109.44944421  .00002031  00000-0  10799-3 0  9994
2 41459  98.1010 192.9422 0168146 200.4963 158.9469 15.05242863163483
AAUSAT 4
1 41460U 16025E   19109.43243353  .00003484  00000-0  17842-3 0  9990
2 41460  98.0986 194.0190 0158591 193.6696 166.0191 15.07049174163596
NUSAT 1
1 41557U 16033B   19109.49976039  .00001358  00000-0  53813-4 0  9993
2 41557  97.4175 197.3585 0014918 145.4332 214.7880 15.27052021160901
BEESAT 4
1 41619U 16040W   19109.13639125  .00001326  00000-0  59384-4 0  9997
2 41619  97.3733 172.4751 0010076 230.6627 129.3717 15.22951282144648
PRATHAM
1 41783U 16059A   19109.41265877  .00000051  00000-0  19127-4 0  9994
2 41783  98.0736 170.3062 0032937 211.4840 148.4392 14.62984342136735
ALSAT 1N
1 41789U 16059G   19109.45268131  .00000100  00000-0  28078-4 0  9990
2 41789  98.0753 172.2100 0027800 200.5525 159.4561 14.64230875136834
NAYIF 1
1 42017U 17008BX  19108.69208412 +.00001476 +00000-0 +61407-4 0  9991
2 42017 097.4080 176.4044 0007068 038.1188 322.0549 15.25340986120629
LILACSAT-1
1 42725U 98067ME  19087.71781172  .15670676  12603-4  45746-3 0  9992
2 42725  51.6064 319.7683 0009359 299.6698  60.5570 16.44549673105565
MAX VALIER SAT
1 42778U 17036P   19108.71254812 +.00000971 +00000-0 +45605-4 0  9995
2 42778 097.3607 167.7043 0014192 080.8959 279.3882 15.21891468100966
